EW3804 Weather Reports


Display with metric or nautical units.
time (UTC)temp
F
wind
direction
speed
MPH
gust
MPH
rain 1hr
in
rain 24hr
in
rain mn
in
humidity
%
barometer
mb
20260905091525 77 146 0.0 1.0 0.00 0.02 0.00 86 1005.5
20260905090024 77 141 1.0 2.0 0.00 0.02 0.00 86 1005.4
20260905084527 77 143 0.0 1.0 0.00 0.02 0.00 85 1005.3
20260905083022 77 166 0.0 0.0 0.00 0.02 0.00 85 1005.3
20260905081520 77 166 0.0 0.0 0.00 0.02 0.00 85 1005.3
20260905080018 78 146 0.0 0.0 0.00 0.02 0.00 84 1005.4
20260905074515 78 131 1.0 3.0 0.00 0.02 0.00 84 1005.5
20260905073018 78 155 2.0 3.0 0.00 0.02 0.00 83 1005.7
20260905071526 79 143 1.0 3.0 0.00 0.02 0.00 83 1005.6
20260905070011 79 129 1.0 3.0 0.00 0.02 0.00 83 1005.6
20260905064510 79 159 0.0 2.0 0.00 0.02 0.00 82 1005.6
20260905063010 79 153 1.0 3.0 0.00 0.02 0.00 82 1005.8
20260905061510 79 208 1.0 5.0 0.00 0.02 0.00 82 1005.8
20260905060007 79 160 0.0 4.0 0.00 0.02 0.00 81 1005.7
20260905054516 80 163 3.0 5.0 0.00 0.02 0.00 80 1005.6
20260905053003 79 147 0.0 2.0 0.00 0.02 0.00 80 1005.7
20260905051503 80 141 0.0 2.0 0.00 0.02 0.00 80 1005.7
20260905050101 80 134 0.0 0.0 0.00 0.02 0.00 79 1005.8
20260905044556 81 134 0.0 1.0 0.00 0.02 0.02 78 1005.9
20260905043052 81 129 1.0 3.0 0.00 0.02 0.02 78 1005.8
20260905041548 81 139 0.0 1.0 0.00 0.02 0.02 77 1005.8
20260905040043 82 131 1.0 4.0 0.00 0.02 0.02 76 1005.8
20260905034538 82 137 2.0 4.0 0.00 0.02 0.02 75 1005.8
20260905033047 82 156 1.0 3.0 0.00 0.02 0.02 74 1005.8
20260905031529 83 133 2.0 5.0 0.00 0.02 0.02 73 1005.7
20260905030025 83 202 2.0 4.0 0.00 0.02 0.02 72 1005.6
20260905024520 84 169 1.0 5.0 0.00 0.02 0.02 71 1005.5
20260905023019 84 153 3.0 6.0 0.00 0.02 0.02 69 1005.4
20260905021512 85 131 2.0 5.0 0.00 0.02 0.02 67 1005.2
20260905020007 85 147 3.0 8.0 0.00 0.02 0.02 66 1005.1
20260905014502 86 162 5.0 8.0 0.00 0.02 0.02 64 1004.8
20260905013102 87 143 5.0 10.0 0.00 0.02 0.02 62 1004.7
20260905011557 87 148 4.0 7.0 0.00 0.02 0.02 62 1004.6
20260905010048 88 139 5.0 12.0 0.00 0.02 0.02 60 1004.3
20260905004544 89 141 7.0 15.0 0.00 0.02 0.02 58 1004.3
20260905003039 90 153 7.0 14.0 0.00 0.02 0.02 54 1004.0
20260905001535 91 147 8.0 15.0 0.00 0.02 0.02 53 1003.8
20260905000031 93 146 8.0 14.0 0.00 0.02 0.02 48 1003.7
20260904234525 93 127 7.0 14.0 0.00 0.02 0.02 47 1003.6
20260904233021 94 139 7.0 13.0 0.00 0.02 0.02 47 1003.5
20260904231516 94 125 6.0 12.0 0.00 0.02 0.02 45 1003.4
20260904230012 95 143 8.0 14.0 0.00 0.02 0.02 45 1003.5
20260904224508 95 117 6.0 12.0 0.00 0.02 0.02 43 1003.5
20260904223003 95 120 6.0 12.0 0.00 0.02 0.02 43 1003.6
20260904221601 96 148 5.0 14.0 0.00 0.02 0.02 43 1003.7
20260904220056 95 124 6.0 14.0 0.00 0.02 0.02 45 1003.8
20260904214551 95 145 7.0 15.0 0.00 0.02 0.02 46 1004.0
20260904213045 95 105 11.0 18.0 0.00 0.02 0.02 45 1004.1
20260904211541 96 155 7.0 17.0 0.00 0.02 0.02 45 1004.2
20260904210043 95 72 9.0 15.0 0.00 0.02 0.02 45 1004.3
20260904204531 95 138 5.0 11.0 0.00 0.02 0.02 46 1004.6
20260904203026 95 115 5.0 15.0 0.00 0.02 0.02 46 1004.6
20260904201521 96 193 7.0 13.0 0.00 0.02 0.02 45 1004.8
20260904200019 95 122 4.0 12.0 0.00 0.02 0.02 45 1004.9
20260904194513 95 124 6.0 14.0 0.00 0.02 0.02 47 1005.0
20260904193008 95 133 4.0 11.0 0.00 0.02 0.02 47 1005.1
20260904191503 93 142 3.0 11.0 0.00 0.02 0.02 51 1005.4
20260904190059 93 84 5.0 11.0 0.00 0.02 0.02 52 1005.7
20260904184556 92 122 5.0 11.0 0.00 0.02 0.02 52 1005.8
20260904183049 92 114 5.0 10.0 0.00 0.02 0.02 54 1006.0
20260904181545 93 117 2.0 11.0 0.00 0.02 0.02 54 1006.1
20260904180042 92 114 3.0 11.0 0.00 0.02 0.02 54 1006.3
20260904174543 91 202 4.0 9.0 0.00 0.02 0.02 57 1006.5
20260904173033 91 158 4.0 9.0 0.00 0.02 0.02 58 1006.6
20260904171530 91 237 4.0 10.0 0.00 0.02 0.02 57 1006.8
20260904170021 91 137 3.0 12.0 0.00 0.02 0.02 59 1007.0
20260904164517 91 228 7.0 12.0 0.00 0.02 0.02 57 1007.0
20260904163021 89 186 5.0 13.0 0.00 0.02 0.02 62 1006.9
20260904161508 88 129 3.0 10.0 0.00 0.02 0.02 66 1007.0
20260904160003 88 207 6.0 11.0 0.00 0.02 0.02 65 1007.1
20260904154558 86 240 6.0 11.0 0.00 0.02 0.02 69 1007.0
20260904153055 85 180 6.0 14.0 0.00 0.02 0.02 74 1007.0
20260904151549 85 189 8.0 13.0 0.00 0.02 0.02 75 1007.1
20260904150104 84 190 5.0 12.0 0.00 0.02 0.02 79 1007.1
20260904144540 83 164 5.0 11.0 0.01 0.02 0.02 82 1006.8
20260904143036 81 216 2.0 7.0 0.01 0.02 0.02 88 1006.9
20260904141531 80 155 0.0 4.0 0.01 0.02 0.02 90 1006.8
20260904140027 80 134 2.0 5.0 0.02 0.02 0.02 90 1006.8
20260904134540 79 115 0.0 4.0 0.01 0.01 0.01 91 1006.8
20260904133018 79 178 0.0 3.0 0.01 0.01 0.01 92 1006.6
20260904131519 78 165 0.0 3.0 0.01 0.01 0.01 92 1006.5
20260904130017 78 126 0.0 4.0 0.00 0.00 0.00 92 1006.5
20260904124504 0 0.0 0.0 0.00 0.00 0.00 1006.1
20260904123059 0 0.0 0.0 0.00 0.00 0.00 1006.0
20260904121556 0 0.0 0.0 0.00 0.00 0.00 1005.9
20260904120103 0 0.0 0.0 0.00 0.00 0.00 1005.7
20260904114548 0 0.0 0.0 0.00 0.00 0.00 1005.5
20260904113042 0 0.0 0.0 0.00 0.00 0.00 1005.4
20260904111538 0 0.0 0.0 0.00 0.00 0.00 1005.4
20260904110034 0 0.0 0.0 0.00 0.00 0.00 1005.5
20260904104530 0 0.0 0.0 0.00 0.00 0.00 1005.3
20260904103025 0 0.0 0.0 0.00 0.00 0.00 1005.3
20260904101521 0 0.0 0.0 0.00 0.00 0.00 1005.2
20260904100017 0 0.0 0.0 0.00 0.00 0.00 1005.0
20260904094524 0 0.0 0.0 0.00 0.00 0.00 1004.9
20260904093008 79 193 3.0 6.0 0.00 0.00 0.00 89 1004.9